Location: �couen
(49.0206°N, 2.3831°E)
Time: 23:16:29
(UTC+00:00)

ATLAS 3B R/B - Pass Details

Date: 31 May 2022
Orbit: 976 x 1218 km, 63.8° (Epoch: 20 June)

Event Time Altitude Azimuth Distance (km) Brightness Sun altitude
Rises 20:41:33 0° 318° (NW) 3,948 8.3 -7.7°
Reaches altitude 10° 20:44:11 10° 317° (NW) 3,020 6.8 -8.0°
Maximum altitude 20:51:26 78° 233° (SW) 1,203 3.0 -8.8°
Enters shadow 20:58:44 11° 149° (SSE) 3,054 4.4 -9.6°
